When you browse on this site, cookies collect data to enhance your experience and personalize the content and advertising you see.
Visit our Privacy Policy to learn more. By continuing to use the site, you agree to this use of cookies and data.
  • In Romania
  • List of Countries
  • For 7 days
  • Water Temperature
  • Weather Map
  • Weather Widgets
  • user-avatar
    Login

    Hourly Weather Serowe

    Today, 23 February, Sunday

    Time Temperature Precipitation Wind Pressure Humidity
    00:00 +26°C° 0.3 mm 2 mps 665 mmHg 69%
    01:00 +25°C° 0.3 mm 2 mps 664 mmHg 71%
    02:00 +25°C° 0.3 mm 3 mps 664 mmHg 73%
    03:00 +24°C° 0.2 mm 3 mps 664 mmHg 76%
    04:00 +24°C° 0.2 mm 3 mps 664 mmHg 78%
    05:00 +24°C° 0.2 mm 3 mps 664 mmHg 80%
    06:00 +24°C° 0 mm 3 mps 665 mmHg 78%
    07:00 +25°C° 0 mm 2 mps 665 mmHg 75%
    08:00 +26°C° 0 mm 2 mps 666 mmHg 72%
    09:00 +27°C° 1 mm 2 mps 666 mmHg 67%
    10:00 +28°C° 1 mm 3 mps 666 mmHg 62%
    11:00 +29°C° 1 mm 3 mps 666 mmHg 57%
    12:00 +30°C° 0.3 mm 3 mps 666 mmHg 53%
    13:00 +31°C° 0.3 mm 3 mps 665 mmHg 49%
    14:00 +33°C° 0.3 mm 3 mps 665 mmHg 45%
    15:00 +32°C° 0.4 mm 4 mps 664 mmHg 50%
    16:00 +29°C° 0.4 mm 5 mps 664 mmHg 55%
    17:00 +28°C° 0.4 mm 6 mps 663 mmHg 60%
    18:00 +26°C° 1.5 mm 6 mps 664 mmHg 69%
    19:00 +23°C° 1.5 mm 7 mps 664 mmHg 79%
    20:00 +21°C° 1.5 mm 7 mps 665 mmHg 88%
    21:00 +21°C° 0.1 mm 8 mps 665 mmHg 88%
    22:00 +20°C° 0.1 mm 8 mps 666 mmHg 88%
    23:00 +20°C° 0.1 mm 8 mps 667 mmHg 87%

    Tomorrow, 24 February, Monday

    Time Temperature Precipitation Wind Pressure Humidity
    00:00 +18°C° 0.8 mm 8 mps 666 mmHg 88%
    01:00 +18°C° 0.8 mm 8 mps 666 mmHg 89%
    02:00 +17°C° 0.8 mm 8 mps 666 mmHg 90%
    03:00 +17°C° 0.8 mm 7 mps 666 mmHg 90%
    04:00 +17°C° 0.8 mm 6 mps 666 mmHg 90%
    05:00 +17°C° 0.8 mm 6 mps 666 mmHg 89%
    06:00 +17°C° 1 mm 6 mps 667 mmHg 90%
    07:00 +17°C° 1 mm 7 mps 667 mmHg 90%
    08:00 +16°C° 1 mm 7 mps 668 mmHg 90%
    09:00 +16°C° 0.3 mm 7 mps 668 mmHg 89%
    10:00 +16°C° 0.3 mm 6 mps 668 mmHg 87%
    11:00 +16°C° 0.3 mm 6 mps 668 mmHg 86%
    12:00 +17°C° 0.2 mm 6 mps 668 mmHg 83%
    13:00 +17°C° 0.2 mm 5 mps 668 mmHg 81%
    14:00 +17°C° 0.2 mm 5 mps 668 mmHg 79%
    15:00 +17°C° 0.1 mm 5 mps 667 mmHg 79%
    16:00 +18°C° 0.1 mm 4 mps 667 mmHg 79%
    17:00 +18°C° 0.1 mm 4 mps 667 mmHg 79%
    18:00 +18°C° 0.1 mm 4 mps 667 mmHg 81%
    19:00 +17°C° 0.1 mm 4 mps 667 mmHg 82%
    20:00 +17°C° 0.1 mm 4 mps 668 mmHg 84%
    21:00 +17°C° 0 mm 4 mps 668 mmHg 84%
    22:00 +15°C° 0 mm 4 mps 668 mmHg 83%
    23:00 +15°C° 0 mm 4 mps 668 mmHg 82%

    Day after tomorrow, 25 February, Tuesday

    Time Temperature Precipitation Wind Pressure Humidity
    00:00 +15°C° 0 mm 4 mps 667 mmHg 84%
    01:00 +14°C° 0 mm 4 mps 667 mmHg 86%
    02:00 +14°C° 0 mm 4 mps 667 mmHg 88%
    03:00 +14°C° 0 mm 4 mps 667 mmHg 88%
    04:00 +15°C° 0 mm 5 mps 667 mmHg 88%
    05:00 +15°C° 0 mm 5 mps 667 mmHg 88%
    06:00 +15°C° 0 mm 6 mps 667 mmHg 84%
    07:00 +16°C° 0 mm 6 mps 668 mmHg 79%
    08:00 +16°C° 0 mm 7 mps 668 mmHg 75%
    09:00 +17°C° 0 mm 6 mps 668 mmHg 71%
    10:00 +19°C° 0 mm 6 mps 668 mmHg 67%
    11:00 +20°C° 0 mm 6 mps 668 mmHg 64%
    12:00 +21°C° 0 mm 6 mps 668 mmHg 62%
    13:00 +21°C° 0 mm 5 mps 667 mmHg 60%
    14:00 +21°C° 0 mm 5 mps 667 mmHg 59%
    15:00 +21°C° 0 mm 4 mps 667 mmHg 57%
    16:00 +22°C° 0 mm 4 mps 666 mmHg 56%
    17:00 +22°C° 0 mm 4 mps 666 mmHg 55%
    18:00 +21°C° 0 mm 3 mps 666 mmHg 58%
    19:00 +20°C° 0 mm 3 mps 666 mmHg 62%
    20:00 +20°C° 0 mm 2 mps 666 mmHg 66%
    21:00 +19°C° 0 mm 2 mps 667 mmHg 67%
    22:00 +19°C° 0 mm 2 mps 667 mmHg 67%
    23:00 +19°C° 0 mm 2 mps 667 mmHg 68%

    26 February, Wednesday

    Time Temperature Precipitation Wind Pressure Humidity
    00:00 +19°C° 0 mm 3 mps 667 mmHg 69%
    01:00 +18°C° 0 mm 3 mps 666 mmHg 69%
    02:00 +18°C° 0 mm 4 mps 666 mmHg 70%
    03:00 +18°C° 0 mm 3 mps 666 mmHg 73%
    04:00 +17°C° 0 mm 3 mps 666 mmHg 76%
    05:00 +17°C° 0 mm 3 mps 666 mmHg 79%
    06:00 +18°C° 0 mm 4 mps 666 mmHg 77%
    07:00 +18°C° 0 mm 4 mps 667 mmHg 74%
    08:00 +19°C° 0 mm 5 mps 667 mmHg 72%
    09:00 +20°C° 0 mm 4 mps 667 mmHg 64%
    10:00 +22°C° 0 mm 4 mps 668 mmHg 56%
    11:00 +24°C° 0 mm 3 mps 668 mmHg 49%
    12:00 +26°C° 0 mm 3 mps 668 mmHg 42%
    13:00 +28°C° 0 mm 3 mps 668 mmHg 35%
    14:00 +29°C° 0 mm 3 mps 667 mmHg 28%
    15:00 +29°C° 0 mm 3 mps 667 mmHg 32%
    16:00 +28°C° 0 mm 2 mps 666 mmHg 36%
    17:00 +27°C° 0 mm 2 mps 665 mmHg 40%
    18:00 +25°C° 0 mm 2 mps 665 mmHg 45%
    19:00 +24°C° 0 mm 2 mps 665 mmHg 51%
    20:00 +21°C° 0 mm 2 mps 665 mmHg 57%
    21:00 +22°C° 0 mm 1 mps 665 mmHg 57%
    22:00 +21°C° 0 mm 1 mps 665 mmHg 57%
    23:00 +21°C° 0 mm 1 mps 666 mmHg 57%

    27 February, Thursday

    Time Temperature Precipitation Wind Pressure Humidity
    00:00 +21°C° 0 mm 1 mps 665 mmHg 58%
    01:00 +20°C° 0 mm 1 mps 665 mmHg 59%
    02:00 +20°C° 0 mm 1 mps 665 mmHg 60%
    03:00 +20°C° 0 mm 1 mps 665 mmHg 60%
    04:00 +20°C° 0 mm 1 mps 665 mmHg 60%
    05:00 +21°C° 0 mm 1 mps 665 mmHg 59%
    06:00 +22°C° 0 mm 1 mps 665 mmHg 56%
    07:00 +23°C° 0 mm 1 mps 666 mmHg 52%
    08:00 +24°C° 0 mm 1 mps 666 mmHg 48%
    09:00 +26°C° 0 mm 2 mps 667 mmHg 42%
    10:00 +28°C° 0 mm 2 mps 667 mmHg 36%
    11:00 +31°C° 0 mm 2 mps 667 mmHg 30%
    12:00 +33°C° 0 mm 3 mps 667 mmHg 27%
    13:00 +34°C° 0 mm 3 mps 667 mmHg 24%
    14:00 +35°C° 0 mm 3 mps 666 mmHg 20%
    15:00 +35°C° 0 mm 2 mps 666 mmHg 20%
    16:00 +35°C° 0 mm 2 mps 665 mmHg 20%
    17:00 +35°C° 0 mm 2 mps 665 mmHg 21%
    18:00 +31°C° 0 mm 2 mps 665 mmHg 26%
    19:00 +29°C° 0 mm 1 mps 665 mmHg 31%
    20:00 +27°C° 0 mm 1 mps 664 mmHg 36%
    21:00 +26°C° 0 mm 1 mps 665 mmHg 39%
    22:00 +25°C° 0 mm 1 mps 665 mmHg 42%
    23:00 +25°C° 0 mm 1 mps 665 mmHg 45%

    28 February, Friday

    Time Temperature Precipitation Wind Pressure Humidity
    00:00 +25°C° 0 mm 1 mps 665 mmHg 46%
    01:00 +22°C° 0 mm 0 mps 665 mmHg 47%
    02:00 +22°C° 0 mm 0 mps 664 mmHg 48%
    03:00 +21°C° 0 mm 0 mps 664 mmHg 49%
    04:00 +23°C° 0 mm 1 mps 665 mmHg 49%
    05:00 +23°C° 0 mm 1 mps 665 mmHg 50%
    06:00 +24°C° 0 mm 1 mps 665 mmHg 47%
    07:00 +25°C° 0 mm 1 mps 666 mmHg 43%
    08:00 +27°C° 0 mm 1 mps 667 mmHg 40%
    09:00 +29°C° 0 mm 2 mps 667 mmHg 36%
    10:00 +31°C° 0 mm 3 mps 668 mmHg 32%
    11:00 +34°C° 0 mm 4 mps 669 mmHg 27%
    12:00 +35°C° 0 mm 4 mps 668 mmHg 27%
    13:00 +36°C° 0 mm 5 mps 668 mmHg 26%
    14:00 +36°C° 0 mm 5 mps 667 mmHg 25%
    15:00 +35°C° 0 mm 5 mps 667 mmHg 27%
    16:00 +34°C° 0 mm 6 mps 666 mmHg 29%
    17:00 +34°C° 0 mm 6 mps 666 mmHg 32%
    18:00 +30°C° 0 mm 7 mps 666 mmHg 39%
    19:00 +28°C° 0 mm 8 mps 666 mmHg 47%
    20:00 +26°C° 0 mm 9 mps 667 mmHg 55%
    21:00 +24°C° 0 mm 9 mps 667 mmHg 61%
    22:00 +22°C° 0 mm 8 mps 668 mmHg 67%
    23:00 +21°C° 0 mm 8 mps 668 mmHg 74%
    Show more